St. Petersburg, FL

7:17 PM EDT on March 23, 2017 (GMT -0400)
Whitted

Weather History for KSPG - May, 2013

Change the Weather History Date:

Sunday, May 26, 2013

  Actual Average Record
Temperature  
Mean Temperature 80 °F -  
Max Temperature 86 °F 86 °F 96 °F (1975)
Min Temperature 73 °F 72 °F 62 °F (1979)
Cooling Degree Days 14    
Growing Degree Days 30 (Base 50)    
Moisture  
Dew Point 61 °F    
Average Humidity 55    
Maximum Humidity 73    
Minimum Humidity 36    
Precipitation  
Precipitation 0.00 in - - ()
Sea Level Pressure  
Sea Level Pressure 30.16 in    
Wind  
Wind Speed 14 mph (East)    
Max Wind Speed 22 mph    
Max Gust Speed -    
Visibility 10 miles    
Events      
Averages and records for this station are not official NWS values.
T = Trace of Precipitation, MM = Missing Value Source: NWS Daily Summary

Daily Weather History Graph

Daily Weather History Graph

Search for Another Location

Airport or City:

Trip Planner

Search our weather history database for the weather conditions in past years. The results will help you decide how hot, cold, wet, or windy it might be!

Date:

Astronomy

May. 26, 2013 Rise Set
Actual Time 6:36 AM EDT 8:19 PM EDT
Civil Twilight 6:10 AM EDT 8:45 PM EDT
Nautical Twilight 5:39 AM EDT 9:16 PM EDT
Astronomical Twilight 5:06 AM EDT 9:49 PM EDT
Moon 10:07 PM EDT (5/26) 8:03 AM EDT (5/26)
Length of Visible Light 14h 34m
Length of Day
13h 42m
Waning Gibbous, 97% of the Moon is Illuminated
May 26
Waning Gibbous
May 31
Last Quarter
Jun 8
New
Jun 16
First Quarter
Jun 23
Full

Hourly Weather History & Observations

Time (EDT) Temp. Heat Index Dew Point Humidity Pressure Visibility Wind Dir Wind Speed Gust Speed Precip Events Conditions
12:53 AM 77.0 °F - 64.9 °F 66% 30.19 in 10.0 mi ESE 17.3 mph - N/A   Clear
1:53 AM 75.9 °F - 64.9 °F 69% 30.18 in 10.0 mi ESE 18.4 mph - N/A   Clear
2:53 AM 75.0 °F - 64.0 °F 69% 30.16 in 10.0 mi ESE 13.8 mph - N/A   Clear
3:53 AM 75.0 °F - 64.0 °F 69% 30.16 in 10.0 mi ESE 13.8 mph - N/A   Clear
4:53 AM 73.9 °F - 63.0 °F 68% 30.16 in 10.0 mi ESE 12.7 mph - N/A   Clear
5:53 AM 73.9 °F - 63.0 °F 68% 30.16 in 10.0 mi SE 12.7 mph - N/A   Clear
6:53 AM 73.9 °F - 63.0 °F 68% 30.17 in 10.0 mi ESE 11.5 mph - N/A   Clear
7:53 AM 73.9 °F - 64.9 °F 73% 30.18 in 10.0 mi East 15.0 mph - N/A   Clear
8:53 AM 75.9 °F - 60.1 °F 58% 30.20 in 10.0 mi ESE 11.5 mph - N/A   Clear
9:53 AM 75.9 °F - 61.0 °F 60% 30.21 in 10.0 mi East 10.4 mph - N/A   Clear
10:53 AM 78.1 °F - 62.1 °F 58% 30.21 in 10.0 mi ENE 11.5 mph - N/A   Clear
11:53 AM 79.0 °F - 61.0 °F 54% 30.20 in 10.0 mi East 6.9 mph - N/A   Clear
12:53 PM 81.0 °F 81.1 °F 57.9 °F 45% 30.19 in 10.0 mi ENE 6.9 mph - N/A   Clear
1:53 PM 84.0 °F 83.5 °F 57.9 °F 41% 30.18 in 10.0 mi ENE 3.5 mph - N/A   Clear
2:53 PM 84.0 °F 83.0 °F 55.9 °F 38% 30.16 in 10.0 mi ENE 6.9 mph - N/A   Clear
3:53 PM 86.0 °F 84.7 °F 55.9 °F 36% 30.14 in 10.0 mi ENE 8.1 mph - N/A   Clear
4:53 PM 84.9 °F 83.9 °F 57.0 °F 38% 30.13 in 10.0 mi East 10.4 mph - N/A   Clear
5:53 PM 84.9 °F 83.7 °F 55.9 °F 37% 30.11 in 10.0 mi ENE 11.5 mph - N/A   Clear
6:53 PM 84.0 °F 83.3 °F 57.0 °F 40% 30.11 in 10.0 mi East 12.7 mph - N/A   Clear
7:53 PM 84.0 °F 83.5 °F 57.9 °F 41% 30.11 in 10.0 mi East 13.8 mph - N/A   Clear
8:53 PM 84.0 °F 84.0 °F 60.1 °F 44% 30.12 in 10.0 mi East 13.8 mph - N/A   Clear
9:53 PM 81.0 °F 82.2 °F 63.0 °F 54% 30.14 in 10.0 mi ESE 21.9 mph - N/A   Clear
10:53 PM 79.0 °F - 64.0 °F 60% 30.17 in 10.0 mi ESE 19.6 mph - N/A   Clear
11:53 PM 77.0 °F - 64.9 °F 66% 30.17 in 10.0 mi ESE 18.4 mph - N/A   Clear